(°F)
63°
64°
66°
68°
70°
72°
73°
(°F)
63°
64°
66°
68°
70°
71°
72°
ENE
NE
ENE
E
SE
NNE
ENE
(mph)
2-5
2-5
2-5
3-8
3-9
3-10
4-10
(in)
0
0
0
0
0.1
0.1
0
(%)
24
28
35
38
58
62
66

Sun elevation

/ 30.1°
sun-icon
UV 4
05:19
21:16
(6°)
05:06
22:04

METAR for Innsbruck (LOWI)

Time Conditions Temperature/
Dewpoint
Wind Visibility Weather Clouds Pressure Change Raw
VFR 62.6°F / 59°F variable 1kt >10km - Few Clouds 600ft
Broken Clouds 10000ft
1016 No Significant change LOWI 290620Z VRB01KT 9999 FEW006 BKN100 17/15 Q1016 NOSIG
VFR 62.6°F / 59°F variable 2kt >10km - Few Clouds 500ft
Scattered Clouds 10000ft
1016 No Significant change LOWI 290550Z VRB02KT 9999 FEW005 SCT100 17/15 Q1016 NOSIG
VFR 60.8°F / 59°F 260º variable 220º to 290º 4kt >10km - Few Clouds 500ft
Scattered Clouds 10000ft
1016 No Significant change LOWI 290520Z 26004KT 220V290 9999 FEW005 SCT100 16/15 Q1016 NOSIG
VFR 60.8°F / 59°F variable 2kt >10km - Few Clouds 600ft
Broken Clouds 9000ft
1016 No Significant change LOWI 290450Z VRB02KT 9999 FEW006 BKN090 16/15 Q1016 NOSIG
VFR 59°F / 59°F 270º 2kt >10km - Few Clouds 1400ft
Broken Clouds 9000ft
1016 No Significant change LOWI 290420Z 27002KT 9999 FEW014 BKN090 15/15 Q1016 NOSIG
VFR 60.8°F / 59°F 210º variable 170º to 260º 3kt >10km - Few Clouds 500ft
Broken Clouds 11000ft
1016 No Significant change LOWI 290350Z 21003KT 170V260 9999 FEW005 BKN110 16/15 Q1016 NOSIG
MVFR 60.8°F / 59°F variable 2kt >10km - Few Clouds 600ft
Broken Clouds 1100ft
1016 - LOWI 290320Z AUTO VRB02KT 9999 FEW006 BKN011 16/15 Q1016
MVFR 59°F / 59°F variable 2kt >10km - Few Clouds 700ft
Broken Clouds 1300ft
1016 - LOWI 290250Z AUTO VRB02KT 9999 FEW007 BKN013 15/15 Q1016
MVFR 60.8°F / 59°F variable 2kt >10km - Few Clouds 600ft
Broken Clouds 1100ft
1016 - LOWI 290220Z AUTO VRB02KT 9999 FEW006 BKN011 16/15 Q1016
VFR 60.8°F / 59°F 300º variable 270º to 330º 4kt >10km - Few Clouds 700ft
Scattered Clouds 1000ft
Broken Clouds 10000ft
1017 - LOWI 290150Z AUTO 30004KT 270V330 9999 FEW007 SCT010 BKN100 16/15 Q1017
IFR 60.8°F / 59°F 250º variable 160º to 300º 7kt >10km - Few Clouds 500ft
Broken Clouds 700ft
1017 - LOWI 290120Z AUTO 25007KT 160V300 9999 FEW005 BKN007 16/15 Q1017
VFR 60.8°F / 59°F 250º variable 210º to 270º 5kt >10km - Few Clouds 500ft
Scattered Clouds 800ft
1017 - LOWI 290050Z AUTO 25005KT 210V270 9999 FEW005 SCT008 16/15 Q1017
VFR 60.8°F / 59°F 150º variable 110º to 170º 3kt >10km - Few Clouds 500ft
Scattered Clouds 700ft
1018 - LOWI 290020Z AUTO 15003KT 110V170 9999 FEW005 SCT007 16/15 Q1018
IFR 60.8°F / 59°F variable 2kt >10km - Few Clouds 400ft
Broken Clouds 700ft
1018 - LOWI 282350Z AUTO VRB02KT 9999 FEW004 BKN007 16/15 Q1018
IFR 60.8°F / 59°F variable 2kt >10km - Few Clouds 600ft
Broken Clouds 900ft
1018 - LOWI 282320Z AUTO VRB02KT 9999 FEW006 BKN009 16/15 Q1018 RERA
IFR 60.8°F / 59°F variable 2kt >10km Light Rain 1.00mm precipitation Vertical Visibility of 0ft.
Broken Clouds 800ft
1018 - LOWI 282250Z AUTO VRB02KT 9999 -RA FEW004 BKN008 16/15 Q1018
VFR 60.8°F / 59°F 260º variable 190º to 290º 3kt >10km - Few Clouds 400ft 1018 - LOWI 282220Z AUTO 26003KT 190V290 9999 FEW004 16/15 Q1018
IFR 60.8°F / 59°F 270º variable 170º to 330º 3kt >10km - Few Clouds 500ft
Broken Clouds 600ft
1018 - LOWI 282150Z AUTO 27003KT 170V330 9999 FEW005 BKN006 16/15 Q1018
VFR 60.8°F / 59°F variable 2kt >10km - Few Clouds 300ft
Scattered Clouds 400ft
1019 - LOWI 282120Z AUTO VRB02KT 9999 FEW003 SCT004 16/15 Q1019
VFR 60.8°F / 59°F variable 1kt >10km - Few Clouds 500ft 1019 No Significant change LOWI 282050Z VRB01KT 9999 FEW005 16/15 Q1019 NOSIG
VFR 62.6°F / 60.8°F 320º variable 280º to 040º 3kt >10km - Few Clouds 500ft 1019 No Significant change LOWI 282020Z 32003KT 280V040 9999 FEW005 17/16 Q1019 NOSIG
VFR 62.6°F / 59°F 290º variable 230º to 320º 4kt >10km - Few Clouds 1500ft 1019 No Significant change LOWI 281950Z 29004KT 230V320 9999 FEW015 17/15 Q1019 NOSIG
VFR 62.6°F / 60.8°F variable 2kt >10km - Few Clouds 900ft
Broken Clouds 10000ft
1019 No Significant change LOWI 281920Z VRB02KT 9999 FEW009 BKN100 17/16 Q1019 NOSIG
VFR 64.4°F / 59°F 80º variable 050º to 120º 5kt >10km Light Showers Rain 3.00mm precipitation Vertical Visibility of 0ft.
Scattered Clouds 7000ft
Broken Clouds 9000ft
1019 No Significant change LOWI 281850Z 08005KT 050V120 9999 -SHRA FEW010 SCT070 BKN090 18/15 Q1019 RESHRA NOSIG

VFR

62.6°F / 59°F

[More]
Wind variable 1kt
Visibility >10km
Weather -
Clouds Few Clouds 600ft
Broken Clouds 10000ft
Pressure 1016
Change No Significant change
Raw LOWI 290620Z VRB01KT 9999 FEW006 BKN100 17/15 Q1016 NOSIG

VFR

62.6°F / 59°F

[More]
Wind variable 2kt
Visibility >10km
Weather -
Clouds Few Clouds 500ft
Scattered Clouds 10000ft
Pressure 1016
Change No Significant change
Raw LOWI 290550Z VRB02KT 9999 FEW005 SCT100 17/15 Q1016 NOSIG

VFR

60.8°F / 59°F

[More]
Wind 260º variable 220º to 290º 4kt
Visibility >10km
Weather -
Clouds Few Clouds 500ft
Scattered Clouds 10000ft
Pressure 1016
Change No Significant change
Raw LOWI 290520Z 26004KT 220V290 9999 FEW005 SCT100 16/15 Q1016 NOSIG

VFR

60.8°F / 59°F

[More]
Wind variable 2kt
Visibility >10km
Weather -
Clouds Few Clouds 600ft
Broken Clouds 9000ft
Pressure 1016
Change No Significant change
Raw LOWI 290450Z VRB02KT 9999 FEW006 BKN090 16/15 Q1016 NOSIG

VFR

59°F / 59°F

[More]
Wind 270º 2kt
Visibility >10km
Weather -
Clouds Few Clouds 1400ft
Broken Clouds 9000ft
Pressure 1016
Change No Significant change
Raw LOWI 290420Z 27002KT 9999 FEW014 BKN090 15/15 Q1016 NOSIG

VFR

60.8°F / 59°F

[More]
Wind 210º variable 170º to 260º 3kt
Visibility >10km
Weather -
Clouds Few Clouds 500ft
Broken Clouds 11000ft
Pressure 1016
Change No Significant change
Raw LOWI 290350Z 21003KT 170V260 9999 FEW005 BKN110 16/15 Q1016 NOSIG

MVFR

60.8°F / 59°F

[More]
Wind variable 2kt
Visibility >10km
Weather -
Clouds Few Clouds 600ft
Broken Clouds 1100ft
Pressure 1016
Change -
Raw LOWI 290320Z AUTO VRB02KT 9999 FEW006 BKN011 16/15 Q1016

MVFR

59°F / 59°F

[More]
Wind variable 2kt
Visibility >10km
Weather -
Clouds Few Clouds 700ft
Broken Clouds 1300ft
Pressure 1016
Change -
Raw LOWI 290250Z AUTO VRB02KT 9999 FEW007 BKN013 15/15 Q1016

MVFR

60.8°F / 59°F

[More]
Wind variable 2kt
Visibility >10km
Weather -
Clouds Few Clouds 600ft
Broken Clouds 1100ft
Pressure 1016
Change -
Raw LOWI 290220Z AUTO VRB02KT 9999 FEW006 BKN011 16/15 Q1016

VFR

60.8°F / 59°F

[More]
Wind 300º variable 270º to 330º 4kt
Visibility >10km
Weather -
Clouds Few Clouds 700ft
Scattered Clouds 1000ft
Broken Clouds 10000ft
Pressure 1017
Change -
Raw LOWI 290150Z AUTO 30004KT 270V330 9999 FEW007 SCT010 BKN100 16/15 Q1017

IFR

60.8°F / 59°F

[More]
Wind 250º variable 160º to 300º 7kt
Visibility >10km
Weather -
Clouds Few Clouds 500ft
Broken Clouds 700ft
Pressure 1017
Change -
Raw LOWI 290120Z AUTO 25007KT 160V300 9999 FEW005 BKN007 16/15 Q1017

VFR

60.8°F / 59°F

[More]
Wind 250º variable 210º to 270º 5kt
Visibility >10km
Weather -
Clouds Few Clouds 500ft
Scattered Clouds 800ft
Pressure 1017
Change -
Raw LOWI 290050Z AUTO 25005KT 210V270 9999 FEW005 SCT008 16/15 Q1017

VFR

60.8°F / 59°F

[More]
Wind 150º variable 110º to 170º 3kt
Visibility >10km
Weather -
Clouds Few Clouds 500ft
Scattered Clouds 700ft
Pressure 1018
Change -
Raw LOWI 290020Z AUTO 15003KT 110V170 9999 FEW005 SCT007 16/15 Q1018

IFR

60.8°F / 59°F

[More]
Wind variable 2kt
Visibility >10km
Weather -
Clouds Few Clouds 400ft
Broken Clouds 700ft
Pressure 1018
Change -
Raw LOWI 282350Z AUTO VRB02KT 9999 FEW004 BKN007 16/15 Q1018

IFR

60.8°F / 59°F

[More]
Wind variable 2kt
Visibility >10km
Weather -
Clouds Few Clouds 600ft
Broken Clouds 900ft
Pressure 1018
Change -
Raw LOWI 282320Z AUTO VRB02KT 9999 FEW006 BKN009 16/15 Q1018 RERA

IFR

60.8°F / 59°F

[More]
Wind variable 2kt
Visibility >10km
Weather Light Rain 1.00mm precipitation
Clouds Vertical Visibility of 0ft.
Broken Clouds 800ft
Pressure 1018
Change -
Raw LOWI 282250Z AUTO VRB02KT 9999 -RA FEW004 BKN008 16/15 Q1018

VFR

60.8°F / 59°F

[More]
Wind 260º variable 190º to 290º 3kt
Visibility >10km
Weather -
Clouds Few Clouds 400ft
Pressure 1018
Change -
Raw LOWI 282220Z AUTO 26003KT 190V290 9999 FEW004 16/15 Q1018

IFR

60.8°F / 59°F

[More]
Wind 270º variable 170º to 330º 3kt
Visibility >10km
Weather -
Clouds Few Clouds 500ft
Broken Clouds 600ft
Pressure 1018
Change -
Raw LOWI 282150Z AUTO 27003KT 170V330 9999 FEW005 BKN006 16/15 Q1018

VFR

60.8°F / 59°F

[More]
Wind variable 2kt
Visibility >10km
Weather -
Clouds Few Clouds 300ft
Scattered Clouds 400ft
Pressure 1019
Change -
Raw LOWI 282120Z AUTO VRB02KT 9999 FEW003 SCT004 16/15 Q1019

VFR

60.8°F / 59°F

[More]
Wind variable 1kt
Visibility >10km
Weather -
Clouds Few Clouds 500ft
Pressure 1019
Change No Significant change
Raw LOWI 282050Z VRB01KT 9999 FEW005 16/15 Q1019 NOSIG

VFR

62.6°F / 60.8°F

[More]
Wind 320º variable 280º to 040º 3kt
Visibility >10km
Weather -
Clouds Few Clouds 500ft
Pressure 1019
Change No Significant change
Raw LOWI 282020Z 32003KT 280V040 9999 FEW005 17/16 Q1019 NOSIG

VFR

62.6°F / 59°F

[More]
Wind 290º variable 230º to 320º 4kt
Visibility >10km
Weather -
Clouds Few Clouds 1500ft
Pressure 1019
Change No Significant change
Raw LOWI 281950Z 29004KT 230V320 9999 FEW015 17/15 Q1019 NOSIG

VFR

62.6°F / 60.8°F

[More]
Wind variable 2kt
Visibility >10km
Weather -
Clouds Few Clouds 900ft
Broken Clouds 10000ft
Pressure 1019
Change No Significant change
Raw LOWI 281920Z VRB02KT 9999 FEW009 BKN100 17/16 Q1019 NOSIG

VFR

64.4°F / 59°F

[More]
Wind 80º variable 050º to 120º 5kt
Visibility >10km
Weather Light Showers Rain 3.00mm precipitation
Clouds Vertical Visibility of 0ft.
Scattered Clouds 7000ft
Broken Clouds 9000ft
Pressure 1019
Change No Significant change
Raw LOWI 281850Z 08005KT 050V120 9999 -SHRA FEW010 SCT070 BKN090 18/15 Q1019 RESHRA NOSIG

TAF for Innsbruck (LOWI)

From till


Maximum Temperature 24ºC on . Minimum Temperature 15ºC on .
From till Wind 270º 4kt. Visibility 10km or more. Few Clouds 500ft. Scattered Clouds 6000ft. Broken Clouds 9000ft.
With 30% probability, Temporarly from till Wind variable 12kt. Gust 25kt. Thunderstorm Rain . Few Clouds 5000ft. Broken Clouds 7000ft.
Temporarly from till Wind 80º 8kt. Showers Rain . Few Clouds 5000ft. Broken Clouds 6000ft.
Temporarly from till Broken Clouds 600ft.

Raw: TAF LOWI 290515Z 2906/3006 27004KT 9999 FEW005 SCT060 BKN090 TX24/2915Z TN15/3004Z TEMPO 2909/2916 08008KT SHRA FEW050CB BKN060 PROB30 TEMPO 2909/2915 VRB12G25KT TSRA FEW050CB BKN070 TEMPO 3000/3006 BKN006

Radar for Innsbruck

Drizzle
Light
Moderate
Heavy
Very Heavy
Hail

The location marker is placed on Innsbruck. This animation shows the precipitation radar for the last hour, as well as a 2h forecast. Drizzle or light snow fall might be invisible for the radar. Precipitation intensity is colour coded, ranging from light blue to orange.
Copyright 2022 Deutscher Wetterdienst / meteoblue.

Current satellite and rain images for Innsbruck, Austria

The location marker is placed on Innsbruck. [More]

The real-time satellite image combines visible light during daytime with infrared radiation during nighttime. At night, the image is not dark as infrared radiation can detect temperature differences. Unfortunately, low clouds and fog are difficult to distinguish from ground temperatures and thus can be almost invisible during the night. Meteosat satellite images for Europe are updated in real-time every 5 minutes. GOES-16/GOES-17 (North & South America) and Himawari (Asia) images update every 10 minutes.

Precipitation is estimated from radar and satellites. At night precipitation estimates from satellites are less accurate than during daytime. Orange crosses mark places where lightning was detected (over Europe).

Copyright 2022 EUMETSAT / meteoblue. Lightning data provided by nowcast.

Back to top